Flag for Germany Weather past 2 weeks in Meppen, Lower Saxony, Germany

Now
61 °F

Cool.


Feels Like: 61 °F
Forecast: 53 / 59 °F
Wind: 5 mph from Southwest

Location: Meppen

Current Time: Sep 4, 2015 at 4:45:58 PM

Latest Report: Sep 4, 2015 at 4:00 PM


Visibility: 6 mi

Pressure: 29.83 "Hg

Humidity: 67%

Dew point: 49 °F

Location of MeppenLocation

Historic Weather in Meppen — Graph

°F

Meppen temperature yesterday

Maximum temperature yesterday: 64 °F (at 2:00 PM)
Minimum temperature yesterday: 46 °F (at 7:00 AM)
Average temperature yesterday: 55 °F

Past Weeks' High & Low Weather Summary

 TemperatureHumidityPressure
High82 °F (Aug 31, 4:00 PM)96% (Aug 29, 7:00 AM)30.26 "Hg (Aug 29, 7:00 AM)
Low46 °F (Aug 29, 7:00 AM)29% (Aug 22, 4:00 PM)29.50 "Hg (Aug 24, 6:00 PM)
Average63 °F73%29.94 "Hg
* Reported Aug 20 3:00 PM — Sep 4 3:00 PM, Meppen, Weather by CustomWeather, © 2015

Note: Actual official high and low records may vary slightly from our data, if they occured in-between our weather recording intervals... More about our weather records

Advertising

Meppen weather history for previous 24 hours

 ConditionsComfort  
Time TempWeatherWind HumidityBarometerVisibility
3:00 PM
Fri, Sep 4
61 °FCool.5 mph70%29.85 "Hg5 mi
2:00 PM61 °FCool.6 mph68%29.85 "Hg5 mi
1:00 PM60 °FOvercast.5 mph70%29.86 "Hg22 mi
12:00 PM59 °FOvercast.5 mph73%29.86 "Hg22 mi
11:00 AMN/APassing clouds.6 mphN/AN/A8 mi
10:00 AM56 °FOvercast.5 mph78%29.87 "Hg11 mi
9:00 AM53 °FOvercast.3 mph86%29.87 "Hg9 mi
7:00 AM51 °FLight rain. Overcast.2 mph88%29.87 "Hg7 mi
6:00 AM52 °FLight rain. Overcast.2 mph85%29.88 "Hg11 mi
4:00 AM52 °FCool.2 mph86%29.90 "Hg5 mi
3:00 AM51 °FCool.2 mph87%29.90 "Hg6 mi
2:00 AM52 °FCool.2 mph87%29.91 "Hg5 mi
1:00 AM53 °FCool.2 mph86%29.92 "Hg5 mi
12:00 AM53 °FCool.2 mph89%29.92 "Hg4 mi
10:00 PM
Thu, Sep 3
53 °FCool.1 mph87%29.92 "Hg5 mi
9:00 PM54 °FCool.1 mph83%29.91 "Hg6 mi
8:00 PMN/APassing clouds.No windN/AN/A9 mi
7:00 PM58 °FCool.2 mph71%29.91 "Hg6 mi
6:00 PM59 °FCool.2 mph77%29.91 "Hg5 mi
4:00 PM57 °FSprinkles. Overcast.3 mph70%29.91 "Hg22 mi
Weather by CustomWeather, © 2015

See weather overviewHow to use our weather pages